Theta_e
318 317 317 317 318 318 319 321 324 326 329 329 328 328 328 328 328 328 328 329 331 331 332 332 331 331 331 331 330 329 328 328 327 325 325 324 325 325 325 325 324 324 324
317 316 316 317 317 318 318 318 319 321 323 326 328 328 328 328 328 329 330 331 330 330 331 332 332 332 332 331 331 331 330 330 329 327 325 323 324 324 325 325 324 320 320
317 316 316 316 317 317 317 318 318 318 319 322 325 327 328 328 329 331 331 331 331 331 331 331 331 331 331 331 331 330 330 330 329 327 325 324 324 324 325 325 323 323 321
317 317 317 317 317 316 316 316 317 318 319 321 323 325 328 329 327 327 327 327 328 328 327 327 327 327 327 328 329 330 330 330 329 327 327 326 325 325 324 324 325 324 324
317 317 317 317 317 318 318 317 317 317 316 317 318 319 320 320 319 319 320 321 323 325 325 325 326 327 327 328 328 328 330 330 330 328 328 328 327 326 324 324 324 324 324
317 317 317 318 318 317 317 317 316 316 316 316 315 315 315 314 315 315 314 314 314 314 314 315 316 318 320 322 322 324 325 327 329 330 329 328 328 327 326 325 325 325 325
317 317 317 317 317 317 316 316 316 315 315 314 314 314 314 314 314 314 314 314 313 313 313 312 313 313 313 314 315 315 317 320 323 325 327 328 328 329 328 327 327 326 326
317 317 317 317 317 316 316 315 315 315 314 313 311 311 311 311 312 312 312 310 309 308 308 307 307 307 307 307 309 312 313 313 314 314 315 316 319 323 326 328 327 327 326
318 317 317 317 316 316 316 315 315 314 313 309 308 309 309 309 309 309 309 308 307 306 306 305 305 305 305 305 305 305 306 308 311 313 313 314 315 315 315 318 320 325 326
317 317 317 316 316 316 315 315 314 314 312 309 308 309 309 309 308 307 307 306 306 306 305 304 304 304 304 304 304 304 304 305 308 312 313 314 314 315 315 315 316 317 320
318 317 316 316 316 315 315 314 314 314 312 308 308 309 309 309 308 308 307 307 306 304 303 302 302 302 302 303 303 303 303 307 309 310 310 311 311 312 312 313 313 313 315
317 317 316 316 315 315 314 314 312 311 308 307 308 308 307 308 309 307 306 305 303 301 300 300 300 300 300 300 300 302 304 304 304 305 307 307 307 308 309 309 310 311 312
316 316 316 315 314 313 312 312 311 309 306 307 307 307 307 306 306 304 302 300 297 296 295 296 296 297 298 298 299 302 299 302 303 304 305 305 304 303 300 304 306 307 308
316 316 314 312 312 312 312 311 309 307 306 306 306 306 305 303 301 298 295 293 292 291 291 291 291 292 293 293 296 296 299 300 300 300 301 301 296 296 297 302 304 305 308
316 314 312 312 312 311 310 307 306 307 306 305 304 302 300 297 293 292 291 291 290 290 290 289 289 290 290 290 291 294 295 298 296 297 297 295 292 292 299 299 294 298 304
314 312 311 311 310 308 307 308 308 306 303 302 299 296 293 291 291 290 290 289 289 289 288 288 288 288 288 289 289 292 296 295 293 293 293 292 291 293 295 291 291 293 298
312 311 311 309 307 308 308 307 305 302 299 296 292 291 290 290 289 289 288 288 288 287 287 287 287 287 287 288 290 292 292 291 291 290 290 289 290 295 294 291 291 291 293
311 310 307 307 307 307 306 303 300 297 293 290 290 290 289 289 288 288 287 287 287 287 287 287 287 286 286 288 290 290 288 287 287 289 288 289 293 293 292 291 291 291 293
309 307 307 306 305 304 303 299 295 291 290 290 289 289 288 288 287 287 287 287 286 286 286 286 286 286 287 288 287 287 288 288 289 289 290 292 292 291 292 292 292 292 295
307 306 306 305 305 303 299 294 291 290 289 288 288 288 287 287 286 286 286 286 286 285 285 285 285 286 287 286 287 288 288 289 289 290 290 289 290 290 291 291 292 293 295
307 308 308 306 304 300 294 290 289 288 288 287 287 287 286 286 286 285 285 285 285 285 285 285 285 286 286 286 287 288 289 289 289 289 289 288 289 290 290 293 293 295 294
307 306 306 304 300 294 290 289 288 287 287 287 287 286 286 286 285 285 285 285 284 284 284 284 285 285 286 286 287 288 289 289 289 288 288 288 289 289 291 292 292 293 293
305 304 302 300 295 289 288 287 287 287 287 286 286 286 285 285 285 284 284 284 284 284 284 284 285 285 285 285 286 287 288 287 287 287 288 288 289 289 290 289 291 291 292
300 300 297 290 288 288 287 287 286 286 286 286 286 285 285 284 284 284 283 283 283 283 284 285 285 285 285 286 286 287 287 286 287 286 286 287 287 287 287 289 289 289 290
297 293 289 288 287 287 287 286 286 286 285 285 285 285 284 284 283 283 283 283 283 284 285 284 284 285 285 285 286 286 286 287 286 285 285 285 284 285 287 288 288 288 289
293 289 288 287 287 286 286 286 286 285 285 284 284 284 284 283 283 283 283 283 283 284 284 284 284 284 284 285 285 285 286 286 284 284 284 283 283 284 285 286 287 287 289
Wind_Speed
6 4 3 3 6 10 13 9 14 23 28 29 32 31 29 29 28 27 27 27 29 31 33 35 36 36 37 38 38 39 40 42 43 44 47 48 47 48 49 48 48 48 48
8 10 11 12 12 10 7 4 10 12 13 15 22 29 31 31 30 28 27 27 27 27 28 30 32 34 36 36 37 39 40 42 42 43 40 32 39 45 45 38 34 32 34
11 13 13 15 14 15 16 14 11 7 8 8 8 13 20 26 24 22 22 23 24 24 26 28 31 33 34 36 37 37 38 42 40 42 36 19 21 32 36 31 28 32 34
9 11 13 15 17 19 17 16 14 9 5 4 4 4 7 11 13 17 19 20 20 23 23 22 23 25 27 33 35 38 39 40 41 38 41 45 46 31 31 38 37 33 38
9 11 13 15 16 16 17 16 15 15 15 13 9 6 5 7 9 10 12 15 16 15 16 17 18 20 21 24 27 32 38 41 43 42 42 43 43 47 45 36 44 43 40
9 9 11 11 12 12 13 13 13 14 13 12 12 13 12 11 11 12 13 14 14 14 14 15 18 21 22 23 23 27 29 32 37 43 45 43 36 35 37 39 40 44 51
9 8 7 7 8 9 10 11 11 12 13 14 15 15 15 14 15 15 17 19 21 22 22 22 21 21 21 21 21 22 25 29 33 35 38 41 43 44 46 45 44 41 42
10 7 6 5 5 7 8 8 8 9 11 13 14 13 13 14 15 16 18 19 21 22 23 25 25 25 25 25 27 27 26 25 26 29 30 33 35 38 41 43 41 42 43
11 9 5 3 4 5 4 5 7 8 10 13 14 14 15 16 18 19 20 21 22 24 26 27 28 28 28 27 27 28 29 29 30 31 31 29 30 30 32 35 37 41 37
13 9 6 5 5 3 1 1 4 7 11 14 16 17 18 19 20 21 23 25 27 30 32 33 33 32 30 30 29 30 29 28 27 27 28 29 30 31 32 32 33 36 38
15 10 7 6 6 4 5 2 4 9 14 17 17 18 20 22 22 24 27 30 32 35 35 34 33 33 32 31 30 30 29 27 28 31 33 33 33 35 36 37 38 38 37
15 10 9 9 8 8 5 3 7 12 16 18 18 19 22 24 25 27 29 32 34 33 33 33 34 35 34 32 32 29 28 33 35 34 30 32 32 34 36 37 38 40 39
15 13 12 11 11 8 4 6 10 15 18 19 20 22 23 24 26 29 31 31 31 32 32 33 33 33 32 33 31 27 35 33 32 30 32 35 39 41 40 37 38 41 40
16 16 16 14 11 6 4 7 12 16 19 21 23 23 24 25 26 28 29 31 32 33 34 34 34 33 33 33 29 33 33 35 33 31 35 39 39 37 36 35 33 34 37
18 17 15 12 7 3 4 10 15 19 22 21 21 21 22 23 27 29 31 32 32 33 34 35 35 34 34 32 33 33 36 35 37 39 41 42 39 37 27 31 38 32 39
18 16 13 9 5 4 9 15 20 21 21 20 19 20 23 26 28 30 31 31 31 32 32 33 34 36 34 33 32 30 35 35 39 45 46 44 43 39 34 38 35 35 34
19 16 12 6 3 10 17 18 18 19 17 16 18 21 25 27 28 29 30 31 32 33 34 34 34 34 33 31 28 30 35 40 43 47 48 48 43 42 44 42 40 41 40
18 12 4 3 10 15 15 15 16 14 16 19 21 24 26 28 29 30 31 32 32 33 34 35 33 34 33 27 29 35 42 45 44 40 43 39 40 45 43 43 46 47 46
11 5 3 9 13 16 16 15 14 16 18 21 23 25 27 29 30 31 32 32 34 34 34 33 33 31 29 28 35 36 37 38 37 38 35 36 42 45 38 42 45 49 50
4 3 9 13 18 18 16 15 17 19 21 23 25 26 26 27 29 30 31 33 33 35 35 35 32 30 29 35 34 33 35 37 37 37 39 41 41 40 40 41 45 48 49
4 10 17 19 21 17 16 17 19 21 22 23 25 25 26 28 29 31 31 34 35 36 36 36 35 31 32 35 32 31 32 34 37 40 42 45 43 42 44 42 39 39 44
9 12 15 20 16 14 16 17 19 21 22 24 25 27 28 29 31 31 33 34 36 36 38 36 34 34 35 35 32 31 30 34 38 40 43 45 45 46 41 36 35 39 41
10 13 16 14 11 13 15 18 20 22 24 26 27 29 30 31 31 33 35 36 36 36 35 32 34 37 39 38 35 33 35 37 38 39 40 42 39 37 34 35 35 37 42
11 12 8 9 12 14 16 18 21 23 25 28 30 31 32 33 33 35 36 35 35 33 32 34 35 37 38 37 38 38 42 41 41 41 45 38 34 32 34 35 39 41 43
7 6 10 12 14 16 17 18 20 24 27 29 30 31 32 33 36 37 37 35 33 26 31 34 35 35 37 38 35 37 37 38 37 41 39 37 39 40 40 42 40 42 44
6 9 11 14 16 18 19 20 22 24 27 30 31 31 32 35 38 39 41 37 32 29 28 28 27 31 30 32 35 34 34 32 37 36 33 38 38 38 39 44 44 45 45
Wind_Direction
65 47 4 326 289 265 260 266 260 259 255 254 252 254 263 272 278 286 288 292 297 295 292 291 293 293 291 291 289 285 282 282 282 280 280 280 279 278 276 277 276 275 274
92 77 72 64 58 53 43 334 264 271 275 265 260 256 258 267 275 281 285 291 299 301 299 296 296 296 294 293 292 290 287 286 284 278 277 274 281 280 284 287 283 283 281
79 73 71 66 64 59 49 39 27 350 302 297 276 262 266 271 279 282 286 288 289 291 294 293 292 292 293 293 294 292 291 287 290 284 270 273 265 282 285 285 283 283 278
92 83 78 73 65 60 55 48 42 37 10 335 307 286 269 275 285 289 291 292 292 293 294 294 293 292 293 292 291 288 288 290 288 288 280 276 270 270 280 280 281 278 278
105 89 80 76 72 66 59 55 50 51 46 40 29 5 346 349 341 328 317 305 304 304 298 300 303 306 302 299 298 294 293 291 288 287 287 280 281 271 257 270 278 278 278
123 103 94 89 75 64 55 48 44 52 52 53 55 51 45 33 17 8 359 354 348 344 338 326 315 312 310 304 304 302 301 298 294 286 279 275 263 267 265 260 262 268 281
140 128 118 98 77 61 52 46 44 49 45 39 36 31 23 14 7 359 349 342 337 335 333 330 325 321 318 314 311 307 302 299 296 291 288 283 273 268 266 265 264 267 268
155 153 149 127 89 64 47 39 37 40 33 27 22 13 4 357 351 345 342 339 337 335 333 330 328 325 321 316 309 303 301 301 301 301 302 301 297 292 284 272 265 265 271
177 180 162 142 95 65 41 17 17 22 15 8 4 3 359 354 350 344 338 335 333 332 329 327 325 323 321 319 316 312 308 305 302 300 299 303 306 304 296 293 289 289 288
193 192 187 164 116 107 51 345 2 359 358 357 355 352 348 341 337 335 333 332 331 331 330 328 326 323 320 319 318 315 313 314 309 306 303 300 300 299 299 298 297 293 288
200 196 180 147 163 182 188 187 332 343 346 349 346 342 340 334 334 331 329 329 329 329 329 329 328 329 327 325 320 318 318 315 308 304 306 302 302 300 300 299 298 298 297
203 189 169 178 192 183 195 288 332 339 343 341 337 334 328 322 320 322 325 326 327 327 327 327 327 328 328 329 329 326 320 315 312 312 314 315 315 309 307 307 304 300 298
189 173 178 183 178 185 226 300 324 336 337 333 329 323 324 326 326 327 328 328 328 327 327 326 327 328 328 329 329 325 321 318 317 318 315 314 315 312 311 305 300 299 298
179 183 186 184 188 197 263 313 324 328 328 325 322 322 324 326 328 328 327 327 327 326 325 324 323 322 321 324 327 322 322 322 318 314 311 311 314 314 312 310 309 307 304
180 184 186 181 179 212 303 325 329 329 325 323 322 326 327 328 329 328 328 328 327 326 325 324 323 321 321 321 321 320 322 318 316 313 315 315 314 315 317 307 311 308 298
182 180 179 185 208 308 339 334 329 323 322 323 325 328 327 330 330 329 330 330 329 329 328 328 326 324 323 319 319 318 316 315 316 314 313 313 314 316 303 315 311 306 305
187 188 194 202 344 337 330 325 320 319 320 323 326 329 331 331 333 334 334 334 333 332 331 329 328 324 324 323 320 321 311 311 311 311 310 308 310 310 311 314 310 308 307
187 184 181 322 322 324 320 310 315 320 325 327 330 332 334 335 335 336 335 333 332 330 328 327 326 323 318 320 320 313 310 309 309 311 308 310 309 309 315 315 311 307 306
180 182 317 322 329 329 323 320 317 321 324 328 332 335 336 334 334 334 332 330 328 327 327 326 325 323 322 321 314 318 319 319 319 322 321 315 312 311 313 311 310 308 309
197 310 331 332 324 321 318 318 322 326 329 331 333 333 333 332 331 330 329 329 328 326 327 326 327 325 321 318 320 322 320 319 322 321 318 317 311 310 311 310 307 306 306
287 316 318 317 318 309 309 317 324 326 328 328 329 331 332 332 330 329 330 330 328 329 329 327 329 329 319 322 321 322 321 321 320 318 318 318 315 313 312 309 305 305 307
274 295 313 313 306 311 314 320 324 326 326 327 328 330 331 331 330 331 331 330 330 329 329 329 324 320 324 325 324 325 321 320 319 319 318 320 317 315 314 313 310 312 314
287 307 310 306 304 307 319 325 327 326 325 326 328 329 329 329 333 333 331 331 331 330 327 321 320 321 326 329 329 326 323 321 322 319 319 316 317 317 315 320 319 320 321
299 312 310 307 311 318 324 325 326 324 324 325 326 328 329 331 332 332 332 328 328 326 324 320 320 320 321 324 328 323 327 327 327 326 321 320 319 319 323 330 331 326 325
306 306 311 311 316 319 323 325 326 324 323 323 325 326 326 328 329 330 329 326 324 321 319 317 318 320 320 322 321 323 324 324 326 323 319 326 327 329 333 332 330 328 329
298 305 306 311 318 321 325 329 325 321 322 323 324 323 323 328 328 327 324 323 324 321 318 318 319 318 316 319 321 323 322 326 327 325 325 327 330 328 326 329 328 331 330